This is the latest recevied weather packets stored in our database for station/object HB9FHL-13. If no packets are shown the sender has not sent any weather packets the latest 1 day(s).
| Time | Temp. | Humidity | Pressure | Rain* | Wind** | Luminosity | Snow |
|---|---|---|---|---|---|---|---|
| 1778044116 | 11.67° C | - | 1001.2 hPa | 0 mm | - | - | - |
| 1778043816 | 11.11° C | - | 1007.6 hPa | 0 mm | - | - | - |
| 1778043514 | 11.11° C | - | 1006.9 hPa | 0 mm | - | - | - |
| 1778042913 | 11.11° C | - | 1006.8 hPa | 0 mm | - | - | - |
| 1778042309 | 11.67° C | - | 1005.9 hPa | 0 mm | - | - | - |
| 1778042008 | 11.11° C | - | 1004.6 hPa | 0 mm | - | - | - |
| 1778041708 | 10.56° C | - | 1005.6 hPa | 0 mm | - | - | - |
| 1778041108 | 10.56° C | - | 1004.5 hPa | 0 mm | - | - | - |
| 1778040806 | 10.56° C | - | 1006.2 hPa | 0 mm | - | - | - |
| 1778040506 | 11.67° C | - | 1007.2 hPa | 0 mm | - | - | - |
| 1778039902 | 12.22° C | - | 1004.7 hPa | 0 mm | - | - | - |
| 1778039600 | 11.67° C | - | 1008.6 hPa | 0 mm | - | - | - |
| 1778039300 | 10.56° C | - | 1007.1 hPa | 0 mm | - | - | - |
| 1778038998 | 11.11° C | - | 1007.4 hPa | 0 mm | - | - | - |
| 1778037797 | 12.22° C | - | 1005.4 hPa | 0 mm | - | - | - |
| 1778037496 | 11.67° C | - | 1008.3 hPa | 0 mm | - | - | - |
| 1778037196 | 11.67° C | - | 1011.4 hPa | 0 mm | - | - | - |
| 1778036895 | 11.67° C | - | 1005.7 hPa | 0 mm | - | - | - |
| 1778036290 | 11.67° C | - | 1008.9 hPa | 0 mm | - | - | - |
| 1778035990 | 11.67° C | - | 1010.6 hPa | 0 mm | - | - | - |
| 1778035389 | 11.67° C | - | 1006.4 hPa | 0 mm | - | - | - |
| 1778035088 | 11.11° C | - | 1007.5 hPa | 0 mm | - | - | - |
| 1778034788 | 11.11° C | - | 1010.8 hPa | 0 mm | - | - | - |
| 1778034487 | 11.67° C | - | 1006.4 hPa | 0 mm | - | - | - |
| 1778034187 | 11.67° C | - | 1006.8 hPa | 0 mm | - | - | - |
* Rain since midnight (hover to see other rain measurements)
** Current wind speed in m/s (hover to see current wind gust speed)